Flag for Colombia Weather past 2 weeks in Medellin, Colombia

Now
59 °F

Passing clouds.


Feels Like: 59 °F
Forecast: 60 / 87 °F
Wind: No wind

Location: Rionegro / J. M. Cordova

Current Time: Dec 26, 2014 at 1:38:28 AM

Latest Report: Dec 26, 2014 at 1:00 AM


Visibility: N/A

Pressure: 30.27 "Hg

Humidity: 94%

Dew point: 57 °F

Location of MedellinLocation

Historic Weather in Medellin — Graph

°F

Medellin temperature yesterday

Maximum temperature yesterday: 72 °F (at 4:00 PM)
Minimum temperature yesterday: 59 °F (at 4:00 AM)
Average temperature yesterday: 64 °F

Past Weeks' High & Low Weather Summary

 TemperatureHumidityPressure
High73 °F (Dec 12, 1:00 PM)100% (Dec 11, 1:00 AM)30.38 "Hg (Dec 11, 1:00 AM)
Low41 °F (Dec 15, 11:00 PM)33% (Dec 22, 3:00 PM)30.16 "Hg (Dec 22, 4:00 PM)
Average62 °F82%30.27 "Hg
* Reported Midnight between Dec 10 and Dec 11 — Midnight between Dec 25 and Dec 26, Medellin, Weather by CustomWeather, © 2014

Note: Actual official high and low records may vary slightly from our data, if they occured in-between our weather recording intervals... More about our weather records

Advertising

Medellin weather history for previous 24 hours

 ConditionsComfort  
Time TempWeatherWind HumidityBarometerVisibility
12:00 AM
Dec 26
61 °FPassing clouds.No wind94%30.31 "HgN/A
11:00 PM
Dec 25
61 °FPassing clouds.5 mph94%30.31 "HgN/A
10:00 PM61 °FPassing clouds.5 mph94%30.31 "HgN/A
9:00 PM61 °FPassing clouds.No wind94%30.29 "HgN/A
8:00 PM63 °FPassing clouds.5 mph88%30.25 "HgN/A
7:00 PM64 °FPassing clouds.7 mph83%30.22 "HgN/A
6:00 PM66 °FPassing clouds.12 mph78%30.20 "HgN/A
5:00 PM70 °FScattered clouds.12 mph60%30.19 "HgN/A
4:00 PM72 °FPassing clouds.9 mph57%30.19 "HgN/A
3:00 PM70 °FScattered clouds.13 mph60%30.21 "HgN/A
2:00 PM70 °FScattered clouds.7 mph60%30.24 "HgN/A
1:00 PM70 °FScattered clouds.9 mph60%30.27 "HgN/A
12:00 PM68 °FScattered clouds.5 mph60%30.29 "HgN/A
11:00 AM66 °FScattered clouds.No wind73%30.32 "HgN/A
10:00 AM64 °FScattered clouds.6 mph78%30.33 "HgN/A
9:00 AM63 °FScattered clouds.5 mph83%30.33 "HgN/A
8:00 AM61 °FScattered clouds.No wind88%30.33 "Hg4 mi
7:00 AM59 °FFog.No wind94%30.30 "Hg2 mi
6:00 AM59 °FFog.No wind94%30.26 "Hg2 mi
5:00 AM59 °FFog.No wind94%30.25 "Hg3 mi
4:00 AM59 °FFog.No wind100%30.25 "Hg3 mi
3:00 AM61 °FFog.No wind88%30.24 "Hg3 mi
2:00 AM61 °FFog.No wind88%30.26 "Hg3 mi
1:00 AM64 °FPassing clouds.No wind83%30.25 "HgN/A
Weather by CustomWeather, © 2014

See weather overviewHow to use our weather pages